[[{"header":{"parameterUnit":"m.s-1","parameterCategory":1,"la1":30.2991,"la2":30.254,"lo1":-89.0895,"lo2":-89.0444,"dx":0.0017,"dy":0.0017,"nx":28,"ny":28,"refTime":"2023-01-10T15:00:00:Z","depth":0,"parameterNumber":2,"parameterNumberName":"U-component_of_WINDS"},"data":[0,0,0,0,0,0,0,0,0,0,0,0,0,0,0,0,0,0,0,0,0,0,0,0,0,0,0,0,0,0,0,0,0,0,0,0,0,0,0,0,0,0,0,0,0,0,0,0,0,0,0,0,0,0,0,0,0,0,1.6294,1.6294,0,1.6314,1.6315,1.6315,1.6293,1.6292,1.6291,1.629,1.6314,1.6315,1.6316,0,0,0,0,0,0,0,0,0,0,0,0,0,1.6237,1.6239,1.6294,1.6294,1.6294,1.6314,1.6315,1.6315,1.6293,1.6292,1.6291,1.629,1.6313,1.6315,1.6316,0,0,0,0,0,0,0,0,0,0,0,0,0,1.626,1.6239,1.6294,1.6285,1.6285,1.6314,1.6315,1.6315,1.6293,1.6292,1.629,1.6289,1.6313,1.6315,1.6317,1.6356,0,0,1.6323,1.6324,0,0,0,0,0,0,0,0,1.6259,1.6263,1.6286,1.6286,1.6286,1.6299,1.6303,1.6329,1.6293,1.629,1.629,1.6289,1.631,1.6312,1.6319,1.6357,1.6358,1.6323,1.6325,1.6326,1.6326,0,0,0,0,0,0,0,1.6258,1.6262,1.6302,1.6287,1.6286,1.6282,1.6283,1.6308,1.6307,1.629,1.6289,1.6291,1.631,1.6317,1.632,1.6358,1.6323,1.6325,1.6327,1.6327,1.643,1.6432,0,0,0,0,0,0,1.6257,1.626,1.6301,1.6302,1.6269,1.6284,1.6286,1.6296,1.6307,1.6307,1.6292,1.629,1.6314,1.6317,1.632,1.6367,1.6326,1.6328,1.6329,1.6429,1.6431,1.6432,0,0,0,0,0,0,1.6255,1.626,1.63,1.6281,1.6286,1.6286,1.6298,1.6297,1.6305,1.6308,1.6308,1.63,1.6313,1.6317,1.6347,1.6368,1.6329,1.6331,1.6427,1.643,1.6432,1.6462,0,0,0,0,0,0,1.6254,1.626,1.6274,1.6281,1.6287,1.6326,1.6299,1.6299,1.6308,1.6306,1.6316,1.6316,1.6312,1.6344,1.6349,1.637,1.6332,1.6425,1.6428,1.6431,1.6459,1.6465,1.647,0,0,0,0,0,1.6252,1.6282,1.6275,1.628,1.6304,1.6327,1.6331,1.6325,1.631,1.6325,1.6327,1.6316,1.6365,1.6347,1.6353,1.6375,1.6424,1.6427,1.6431,1.6457,1.6464,1.647,0,0,0,0,0,0,1.6278,1.6283,1.6275,1.6308,1.6318,1.6324,1.6342,1.6333,1.6347,1.6344,1.6338,1.634,1.6372,1.6376,1.6357,1.6414,1.6392,1.6397,1.641,1.6417,1.6422,1.642,1.6334,0,0,0,0,0,1.6287,1.6305,1.6309,1.6338,1.6343,1.6342,1.6351,1.6347,1.6356,1.636,1.6365,1.6375,1.6393,1.6405,1.6422,1.6459,1.6462,1.6477,1.6483,1.6487,1.6491,1.6513,1.652,1.6443,1.6443,1.6443,0,0,1.6307,1.6312,1.6324,1.6343,1.6349,1.6369,1.6345,1.6366,1.6381,1.6364,1.6392,1.6396,1.6407,1.6442,1.6457,1.6446,1.6513,1.6491,1.6495,1.6497,1.6517,1.6524,1.6531,1.6445,1.6445,1.6444,0,0,1.6353,1.6358,1.6384,1.6391,1.6401,1.64,1.6406,1.6414,1.6416,1.6444,1.6432,1.645,1.6481,1.6489,1.6498,1.6549,1.6539,1.6554,1.6583,1.6604,1.661,1.6615,1.6634,1.6641,1.6559,1.6559,1.6559,0,1.6377,1.6405,1.6398,1.642,1.643,1.6415,1.6441,1.6448,1.6464,1.6471,1.6459,1.6497,1.6504,1.6541,1.6553,1.656,1.6568,1.6553,1.6609,1.6615,1.662,1.6638,1.6645,1.656,1.656,1.656,1.656,0,1.6434,1.6453,1.6473,1.6488,1.6499,1.6523,1.6521,1.6534,1.6528,1.6529,1.6559,1.6567,1.6585,1.6593,1.6588,1.663,1.6623,1.661,1.6588,1.6629,1.6646,1.6653,1.6563,1.6562,1.6562,1.6561,0,0,1.6496,1.6508,1.6515,1.6522,1.6533,1.6548,1.6572,1.659,1.6601,1.6613,1.6634,1.666,1.6649,1.6658,1.6654,1.6673,1.6714,1.6658,1.6658,1.6669,1.6761,1.6771,1.678,1.6707,1.6709,1.671,1.6761,0,1.6543,1.6584,1.6579,1.6619,1.6638,1.6624,1.6646,1.6655,1.6657,1.6674,1.6676,1.6695,1.6678,1.6684,1.6702,1.6705,1.6733,1.6701,1.6728,1.6729,1.6726,1.6788,1.6799,1.6846,1.6767,1.6768,1.6769,0,1.6603,1.6617,1.6658,1.6667,1.6675,1.6694,1.671,1.6726,1.6737,1.6737,1.6749,1.6741,1.6767,1.6744,1.678,1.6759,1.6769,1.6773,1.6774,1.6777,1.6752,1.6793,1.6862,1.6869,1.6779,1.6779,1.6778,0,1.6645,1.6674,1.6703,1.6709,1.672,1.6734,1.674,1.6749,1.676,1.6775,1.6782,1.68,1.6809,1.6824,1.6822,1.6805,1.6859,1.6835,1.686,1.686,1.6872,1.6872,1.6944,1.6878,1.6878,1.6878,1.6878,0,1.6698,1.6725,1.6722,1.674,1.6769,1.6764,1.6794,1.6797,1.6806,1.6825,1.6815,1.6833,1.683,1.6848,1.6847,1.6877,1.6882,1.6883,1.6883,1.6885,1.6884,1.6892,1.6889,1.688,1.6879,1.6879,1.6879,0,1.6751,1.675,1.6781,1.6789,1.6791,1.6813,1.682,1.6838,1.6839,1.6863,1.6869,1.6871,1.6892,1.6892,1.6916,1.6916,1.6953,1.6949,1.6949,1.6949,1.6974,1.6972,1.7053,1.7064,1.6991,1.6992,1.6992,0,1.6785,1.6804,1.6815,1.6827,1.6833,1.6852,1.6864,1.686,1.6872,1.6887,1.6903,1.6924,1.694,1.6975,1.6979,1.6998,1.6994,1.7022,1.6997,1.6999,1.6996,1.6995,1.6997,1.7027,1.7027,1.7028,1.7029,0,1.6845,1.6844,1.6861,1.6878,1.6892,1.6905,1.6918,1.6928,1.6926,1.6941,1.6962,1.6975,1.7,1.7021,1.7039,1.7046,1.7038,1.7036,1.7043,1.7045,1.7045,1.7046,1.6963,1.7035,1.7034,1.7034,1.7033,1.7033,1.689,1.6907,1.6918,1.6937,1.6946,1.6958,1.6975,1.6979,1.6997,1.7016,1.7013,1.7038,1.705,1.7074,1.7082,1.7102,1.7092,1.7102,1.7104,1.7107,1.711,1.7042,1.7105,1.7105,1.7105,1.7104,1.7104,0,1.6951,1.6957,1.6975,1.6993,1.7008,1.6999,1.7012,1.7026,1.7047,1.7059,1.7075,1.7101,1.7121,1.7127,1.7147,1.7162,1.7159,1.7168,1.7167,1.7169,1.7117,1.7109,1.717,1.717,1.717,1.717,1.717,1.717,1.6984,1.7014,1.7014,1.7048,1.7055,1.7078,1.7087,1.7099,1.7108,1.7137,1.7154,1.7157,1.7167,1.7188,1.7207,1.7208,1.7216,1.7227,1.7227,1.7179,1.7172,1.7166,1.7159,1.7229,1.7229,1.7277,1.7277,1.7278]},{"header":{"parameterUnit":"m.s-1","parameterCategory":1,"la1":30.2991,"la2":30.254,"lo1":-89.0895,"lo2":-89.0444,"dx":0.0017,"dy":0.0017,"nx":28,"ny":28,"refTime":"2023-01-10T15:00:00:Z","depth":0,"parameterNumber":3,"parameterNumberName":"V-component_of_WINDS"},"data":[0,0,0,0,0,0,0,0,0,0,0,0,0,0,0,0,0,0,0,0,0,0,0,0,0,0,0,0,0,0,0,0,0,0,0,0,0,0,0,0,0,0,0,0,0,0,0,0,0,0,0,0,0,0,0,0,0,0,4.071,4.0711,0,4.081,4.0811,4.0812,4.0826,4.0825,4.0824,4.0823,4.0923,4.0927,4.093,0,0,0,0,0,0,0,0,0,0,0,0,0,4.0529,4.0533,4.071,4.0711,4.0712,4.081,4.0811,4.0812,4.0826,4.0825,4.0824,4.0823,4.0922,4.0926,4.093,0,0,0,0,0,0,0,0,0,0,0,0,0,4.0616,4.0534,4.071,4.0731,4.0734,4.0809,4.0811,4.0813,4.0826,4.0825,4.0823,4.0822,4.0921,4.0926,4.0931,4.0992,0,0,4.0947,4.095,0,0,0,0,0,0,0,0,4.0611,4.0623,4.0726,4.073,4.0733,4.0804,4.0784,4.0873,4.0827,4.0791,4.0823,4.0821,4.0885,4.0893,4.0914,4.0996,4.1001,4.0948,4.0951,4.0953,4.0955,0,0,0,0,0,0,0,4.0605,4.0619,4.0749,4.0728,4.0732,4.0735,4.0746,4.0801,4.0844,4.0794,4.0795,4.0807,4.0886,4.0909,4.0917,4.1002,4.0948,4.0952,4.0956,4.0958,4.114,4.1142,0,0,0,0,0,0,4.0596,4.0614,4.0746,4.0752,4.0668,4.0739,4.0752,4.0783,4.0844,4.0852,4.0808,4.0807,4.0901,4.0911,4.092,4.0997,4.0953,4.0958,4.0961,4.1139,4.1141,4.1143,0,0,0,0,0,0,4.0592,4.0607,4.0742,4.0683,4.0701,4.0744,4.0779,4.0785,4.0809,4.0855,4.0862,4.0824,4.09,4.0913,4.0974,4.1001,4.0961,4.0965,4.1137,4.1139,4.1142,4.1149,0,0,0,0,0,0,4.0586,4.0606,4.0629,4.0684,4.0704,4.0795,4.078,4.0788,4.0818,4.0818,4.0872,4.0879,4.09,4.0967,4.098,4.1007,4.0969,4.1135,4.1138,4.1141,4.1147,4.1152,4.1156,0,0,0,0,0,4.058,4.0627,4.0631,4.0647,4.0734,4.0796,4.0808,4.0832,4.082,4.0844,4.0874,4.0877,4.0995,4.0973,4.0988,4.1017,4.1133,4.1137,4.1141,4.1145,4.1151,4.1156,0,0,0,0,0,0,4.0573,4.0634,4.0639,4.0705,4.0746,4.0798,4.083,4.0837,4.0881,4.0879,4.0906,4.0918,4.0979,4.1004,4.0977,4.108,4.1063,4.107,4.1061,4.1067,4.1072,4.1065,4.0974,0,0,0,0,0,4.0579,4.0625,4.0676,4.0729,4.0749,4.0786,4.0814,4.0829,4.0872,4.0888,4.0922,4.0963,4.101,4.104,4.1085,4.115,4.1163,4.1178,4.1183,4.1186,4.1192,4.123,4.1238,4.1155,4.1155,4.1155,0,0,4.0593,4.0632,4.0659,4.0729,4.0762,4.0808,4.08,4.0849,4.0884,4.0896,4.0957,4.0983,4.103,4.1094,4.1124,4.1117,4.1218,4.1191,4.1193,4.1198,4.1235,4.1243,4.1249,4.1158,4.1157,4.1157,0,0,4.0641,4.0675,4.0724,4.0757,4.0808,4.0833,4.0844,4.0897,4.0915,4.0977,4.0987,4.1028,4.1107,4.1141,4.1169,4.1231,4.1237,4.1245,4.1269,4.1306,4.1312,4.1318,4.1342,4.135,4.1251,4.1251,4.1251,0,4.0651,4.0722,4.0747,4.0797,4.0828,4.0842,4.0892,4.0923,4.0985,4.1006,4.0998,4.1099,4.1131,4.1204,4.122,4.1241,4.1256,4.124,4.1309,4.1316,4.1321,4.1344,4.1353,4.1252,4.1251,4.1251,4.1251,0,4.0733,4.0782,4.0815,4.0877,4.0911,4.0961,4.0994,4.1025,4.1038,4.1063,4.1126,4.1166,4.122,4.1238,4.125,4.1314,4.1308,4.1304,4.1288,4.133,4.1352,4.1361,4.1253,4.1252,4.1252,4.1252,0,0,4.0779,4.0855,4.0867,4.0896,4.0954,4.0992,4.1042,4.1097,4.1124,4.1167,4.121,4.1277,4.1275,4.1306,4.1321,4.1354,4.1403,4.1346,4.1348,4.1356,4.1476,4.148,4.149,4.1406,4.1408,4.1409,4.1473,0,4.0835,4.0926,4.0951,4.1028,4.1075,4.1089,4.1133,4.1173,4.1198,4.1241,4.1268,4.1316,4.1308,4.1327,4.136,4.139,4.1427,4.1385,4.1447,4.1449,4.1436,4.1501,4.1505,4.1563,4.1481,4.1483,4.1484,0,4.0913,4.0959,4.1041,4.1094,4.1115,4.1154,4.1206,4.1247,4.1293,4.1309,4.1344,4.1358,4.1411,4.1391,4.1465,4.1436,4.1463,4.1481,4.1484,4.1492,4.147,4.1511,4.1582,4.1591,4.1498,4.1496,4.1495,0,4.094,4.1023,4.1083,4.1107,4.117,4.1198,4.1225,4.127,4.1301,4.1347,4.1367,4.1418,4.1446,4.1484,4.1511,4.1494,4.1583,4.1566,4.1598,4.1598,4.1617,4.1616,4.1694,4.1632,4.1632,4.1632,4.1632,0,4.1001,4.1051,4.1097,4.1134,4.119,4.1218,4.1274,4.1301,4.1341,4.1384,4.1398,4.1438,4.147,4.1514,4.1535,4.1594,4.1606,4.1621,4.1626,4.162,4.1619,4.1639,4.1636,4.1634,4.1634,4.1633,4.1633,0,4.1042,4.1074,4.1141,4.1196,4.1211,4.125,4.1297,4.1334,4.136,4.1414,4.1428,4.1468,4.1521,4.1552,4.1617,4.1632,4.1697,4.17,4.1682,4.1685,4.1716,4.1714,4.1811,4.1826,4.1753,4.1754,4.1754,0,4.1079,4.1118,4.1178,4.1208,4.1236,4.1285,4.1317,4.1346,4.138,4.1436,4.1466,4.152,4.1565,4.1648,4.1683,4.1734,4.1739,4.177,4.1746,4.174,4.1741,4.1739,4.1743,4.1774,4.1774,4.1775,4.1775,0,4.1142,4.1156,4.1203,4.1257,4.1296,4.1339,4.1381,4.1405,4.1441,4.1478,4.1533,4.1568,4.1636,4.169,4.1744,4.1772,4.178,4.1782,4.1793,4.1788,4.1777,4.1785,4.1695,4.178,4.178,4.1779,4.1779,4.1779,4.1183,4.1219,4.1267,4.132,4.1355,4.1395,4.1433,4.1464,4.1511,4.157,4.1584,4.1642,4.1687,4.1761,4.179,4.1836,4.183,4.1845,4.1849,4.1853,4.1855,4.1769,4.1846,4.1845,4.1845,4.1845,4.1845,0,4.1248,4.128,4.1328,4.1388,4.143,4.1434,4.1482,4.1516,4.1568,4.161,4.1655,4.1718,4.1771,4.181,4.1864,4.1893,4.1898,4.1906,4.1905,4.1911,4.1856,4.1842,4.1901,4.1901,4.1901,4.1901,4.1901,4.1901,4.1287,4.1349,4.1369,4.1449,4.1481,4.1539,4.1566,4.1603,4.1637,4.1708,4.1752,4.1778,4.182,4.1877,4.1925,4.1935,4.1955,4.1962,4.1973,4.1921,4.1915,4.1909,4.1897,4.1966,4.1966,4.2025,4.2026,4.2026]}]]